Location: Sherrills_Ford_Terrell
(35.6000°N, 80.9830°W)
Time: 11:01:58
(UTC-04:00)

ISS - Visible Passes

Search period start: 30 April 2016 00:00
Search period end: 10 May 2016 00:00
Orbit: 402 x 405 km, 51.6° (Epoch: 30 April)

Date Brightness Start Highest point End Pass type
(mag) Time Alt. Az. Time Alt. Az. Time Alt. Az.
05 May -0.5 05:33:59 10° SSE 05:35:15 12° SE 05:36:32 10° ESE visible
07 May -1.9 05:23:49 12° SSW 05:26:25 31° SE 05:29:21 10° ENE visible
08 May -1.0 04:33:34 15° SE 04:34:04 15° SE 04:36:01 10° E visible
09 May -3.4 05:15:53 24° SW 05:17:41 88° NW 05:20:56 10° NE visible
